(47503) = 2000 AQ54

Discovered at Socorro on 2000-01-04 by LINEAR.

Orbit

Orbit type: Main Belt

Note: WebGL enabled browser required.

epoch2023-09-13.0
epoch JD2460200.5
perihelion date2021-06-14.65997
perihelion JD2459380.15997
argument of perihelion (°)310.39157
ascending node (°)79.60267
inclination (°)2.28318
eccentricity0.1955845
perihelion distance (AU)1.9179391
Tisserand w.r.t. Jupiter3.5
ΔV w.r.t. Earth (km/sec)8.7
semimajor axis (AU)2.3842643
mean anomaly (°)219.61711
mean daily motion (°/day)0.26771470
aphelion distance (AU)2.851
period (years)3.68
P-vector [x]0.86548092
P-vector [y]0.47083079
P-vector [z]0.17105888
Q-vector [x]-0.49940701
Q-vector [y]0.78425482
Q-vector [z]0.36815353
absolute magnitude16.17
phase slope0.15
uncertainty0
referenceMPEC 2023-Y06
observations used933
oppositions17
arc length (days)10040
first opposition used1995
last opposition used2023
residual rms (arc-secs)0.67
perturbers coarse indicatorM-v
perturbers precise indicator003Ek
first observation date used1995-11-27.0
last observation date used2023-05-24.0
computer nameMPCLINUX
JD of orbit computation2456966.780291
perihelion JD uncertainty (days)3.5427E-05
argument of perihelion uncertainty (°)9.3411E-05
ascending node uncertainty (°)9.2920E-05
inclination uncertainty (°)3.4206E-06
eccentricity uncertainty 3.5122E-08
perihelion distance uncertainty (AU)8.6041E-08
Minimum Orbit Intersection Distances (in AU)
for orbit epoch: 2460200.5, reference: E2023-Y06
Mercury1.58525
Venus1.1937
Earth0.92336
Mars0.46393
Jupiter2.58457
Saturn6.72661
Uranus15.6957
Neptune27.8636

Observations

958 total observations over interval: 1995 11 27.22332 – 2023 05 24.255591
These data are available for download (format description).

Date (UT) J2000 RA J2000 Dec Magn Location Ref
1995 11 27.22332 03 45 28.41 +18 22 04.2 18.0 V 691 – Steward Observatory, Kitt Peak-Spacewatch MPS 31632
1995 11 27.24514 03 45 27.04 +18 22 03.0   691 – Steward Observatory, Kitt Peak-Spacewatch MPS 31632
1995 11 27.26697 03 45 25.66 +18 22 01.5   691 – Steward Observatory, Kitt Peak-Spacewatch MPS 31632
2000 01 04.30313 08 23 12.94 +21 41 20.9 18.6   704 – Lincoln Laboratory ETS, New Mexico MPS 9278
2000 01 04.33226 08 23 11.14 +21 41 29.0 19.5   704 – Lincoln Laboratory ETS, New Mexico MPS 9278
2000 01 04.34695 08 23 10.32 +21 41 32.6 19.3   704 – Lincoln Laboratory ETS, New Mexico MPS 9278
2000 01 04.36155 08 23 09.43 +21 41 37.6 18.9   704 – Lincoln Laboratory ETS, New Mexico MPS 9278
2000 01 06.31225 08 21 13.97 +21 50 39.1 17.7   704 – Lincoln Laboratory ETS, New Mexico MPS 9278
2000 01 06.32689 08 21 13.05 +21 50 42.9 17.7   704 – Lincoln Laboratory ETS, New Mexico MPS 9278
2000 01 06.34163 08 21 12.16 +21 50 46.5 18.1   704 – Lincoln Laboratory ETS, New Mexico MPS 9279
2000 01 06.35626 08 21 11.35 +21 50 50.9 17.9   704 – Lincoln Laboratory ETS, New Mexico MPS 9279
2000 01 11.34009 08 15 57.30 +22 13 57.1 18.3 V 691 – Steward Observatory, Kitt Peak-Spacewatch MPS 9279
2000 01 11.36338 08 15 55.70 +22 14 03.4 18.3 V 691 – Steward Observatory, Kitt Peak-Spacewatch MPS 9279
2000 01 11.38656 08 15 54.15 +22 14 09.7 18.5 V 691 – Steward Observatory, Kitt Peak-Spacewatch MPS 9279
2000 01 30.24027 07 55 13.10 +23 29 52.6 19.0   704 – Lincoln Laboratory ETS, New Mexico MPS 10136
2000 01 30.25517 07 55 12.14 +23 29 54.0 19.3   704 – Lincoln Laboratory ETS, New Mexico MPS 10136
2000 01 30.27005 07 55 11.20 +23 29 58.8 19.9   704 – Lincoln Laboratory ETS, New Mexico MPS 10136
2000 01 30.28500 07 55 10.22 +23 30 00.1 19.5   704 – Lincoln Laboratory ETS, New Mexico MPS 10136
2000 02 01.18173 07 53 16.97 +23 35 44.9 19.1 V 691 – Steward Observatory, Kitt Peak-Spacewatch MPS 10136
2000 02 01.19060 07 53 16.45 +23 35 46.9 20.0 V 691 – Steward Observatory, Kitt Peak-Spacewatch MPS 10136
2000 02 01.19884 07 53 15.90 +23 35 48.1 18.7 V 691 – Steward Observatory, Kitt Peak-Spacewatch MPS 10136
2001 04 16.29046 14 35 04.62 -12 37 22.9 20.6 V 691 – Steward Observatory, Kitt Peak-Spacewatch MPS 31632
2001 04 16.31278 14 35 03.38 -12 37 17.0 20.6 V 691 – Steward Observatory, Kitt Peak-Spacewatch MPS 31632
2001 04 16.33429 14 35 02.18 -12 37 12.9 20.1 V 691 – Steward Observatory, Kitt Peak-Spacewatch MPS 31632
2001 05 01.32113 14 20 49.97 -11 33 17.8 20.3 V 691 – Steward Observatory, Kitt Peak-Spacewatch MPS 31632
2001 05 01.34396 14 20 48.63 -11 33 11.9 20.5 V 691 – Steward Observatory, Kitt Peak-Spacewatch MPS 31632
2001 05 01.36612 14 20 47.31 -11 33 06.4 20.5 V 691 – Steward Observatory, Kitt Peak-Spacewatch MPS 31632
2002 08 10.34554 22 46 38.75 -12 04 42.7 17.8   704 – Lincoln Laboratory ETS, New Mexico MPS 59696
2002 08 10.35744 22 46 38.32 -12 04 46.7 18.0   704 – Lincoln Laboratory ETS, New Mexico MPS 59696
2002 08 10.36933 22 46 37.85 -12 04 49.8 18.3   704 – Lincoln Laboratory ETS, New Mexico MPS 59696
2002 08 10.38120 22 46 37.30 -12 04 54.2 18.3   704 – Lincoln Laboratory ETS, New Mexico MPS 59696
2002 08 10.39309 22 46 36.89 -12 04 58.3 18.6   704 – Lincoln Laboratory ETS, New Mexico MPS 59696
2002 08 14.30441 22 44 03.19 -12 26 28.4 18.1   704 – Lincoln Laboratory ETS, New Mexico MPS 59696
2002 08 14.31987 22 44 02.51 -12 26 33.7 18.8   704 – Lincoln Laboratory ETS, New Mexico MPS 59696
2002 08 14.33533 22 44 01.80 -12 26 38.5 18.6   704 – Lincoln Laboratory ETS, New Mexico MPS 59696
2002 08 14.35079 22 44 01.16 -12 26 43.4 18.6   704 – Lincoln Laboratory ETS, New Mexico MPS 59696
2002 08 14.36645 22 44 00.45 -12 26 49.2 18.7   704 – Lincoln Laboratory ETS, New Mexico MPS 59696
2002 08 15.27655 22 43 21.81 -12 32 02.0 17.9 R 699 – Lowell Observatory-LONEOS MPS 60923
2002 08 15.30120 22 43 20.66 -12 32 09.5   699 – Lowell Observatory-LONEOS MPS 60923
2002 08 15.32576 22 43 19.56 -12 32 18.5   699 – Lowell Observatory-LONEOS MPS 60923
2002 08 15.35028 22 43 18.42 -12 32 26.8   699 – Lowell Observatory-LONEOS MPS 60923
2002 08 18.47106 22 40 56.73 -12 50 39.1 17.9   644 – Palomar Mountain/NEAT MPS 60923
2002 08 18.48142 22 40 56.21 -12 50 42.8 18.0   644 – Palomar Mountain/NEAT MPS 60923
2002 08 18.49177 22 40 55.69 -12 50 46.4 18.2   644 – Palomar Mountain/NEAT MPS 60923
2002 09 05.20295 22 25 25.42 -14 33 03.6 17.9   704 – Lincoln Laboratory ETS, New Mexico MPS 60923
2002 09 05.21759 22 25 24.57 -14 33 08.4 18.4   704 – Lincoln Laboratory ETS, New Mexico MPS 60923
2002 09 05.23227 22 25 23.75 -14 33 13.6 18.4   704 – Lincoln Laboratory ETS, New Mexico MPS 60923
2002 09 05.24692 22 25 22.90 -14 33 17.7 18.3   704 – Lincoln Laboratory ETS, New Mexico MPS 60923
2002 09 05.26222 22 25 22.06 -14 33 23.1 18.3   704 – Lincoln Laboratory ETS, New Mexico MPS 60923
2002 09 06.20079 22 24 32.17 -14 38 08.4 17.5   704 – Lincoln Laboratory ETS, New Mexico MPS 60923
2002 09 06.24529 22 24 29.70 -14 38 22.1 17.9   704 – Lincoln Laboratory ETS, New Mexico MPS 60923
2002 09 06.26007 22 24 28.85 -14 38 26.7 18.4   704 – Lincoln Laboratory ETS, New Mexico MPS 60923
2002 09 13.20528 22 18 38.38 -15 09 33.1 18.0   704 – Lincoln Laboratory ETS, New Mexico MPS 60923
2002 09 13.22079 22 18 37.67 -15 09 35.8 18.4   704 – Lincoln Laboratory ETS, New Mexico MPS 60923
2002 09 13.23603 22 18 36.90 -15 09 39.5 18.2   704 – Lincoln Laboratory ETS, New Mexico MPS 60923
2002 10 03.17171 22 08 06.67 -15 46 52.9 19.1   704 – Lincoln Laboratory ETS, New Mexico MPS 65206
2002 10 03.18677 22 08 06.36 -15 46 52.0 19.8   704 – Lincoln Laboratory ETS, New Mexico MPS 65206
2002 10 03.20179 22 08 06.22 -15 46 52.1 19.1   704 – Lincoln Laboratory ETS, New Mexico MPS 65206
2002 10 03.21774 22 08 05.96 -15 46 51.1 19.5   704 – Lincoln Laboratory ETS, New Mexico MPS 65206
2002 10 03.23307 22 08 05.63 -15 46 50.8 19.7   704 – Lincoln Laboratory ETS, New Mexico MPS 65206
2003 11 20.42218 10 41 18.02 +10 19 55.6 22.1 V 691 – Steward Observatory, Kitt Peak-Spacewatch MPS 91495
2003 11 20.44414 10 41 19.43 +10 19 48.8 22.2 V 691 – Steward Observatory, Kitt Peak-Spacewatch MPS 91495
2003 11 20.46280 10 41 20.64 +10 19 42.5 21.7 V 691 – Steward Observatory, Kitt Peak-Spacewatch MPS 91495
2004 02 11.44716 10 56 49.93 +10 30 22.8 19.1   644 – Palomar Mountain/NEAT MPS 99604
2004 02 11.46971 10 56 48.71 +10 30 31.0 19.5   644 – Palomar Mountain/NEAT MPS 99604
2004 02 11.49182 10 56 47.55 +10 30 39.0 19.3   644 – Palomar Mountain/NEAT MPS 99604
2004 02 16.43877 10 52 23.28 +11 01 00.7 20.3 V 691 – Steward Observatory, Kitt Peak-Spacewatch MPS 99604
2004 02 16.49794 10 52 19.90 +11 01 22.7 20.0 V 691 – Steward Observatory, Kitt Peak-Spacewatch MPS 99604
2004 02 16.52613 10 52 18.31 +11 01 32.8 20.1 V 691 – Steward Observatory, Kitt Peak-Spacewatch MPS 99604
2004 02 17.27929 10 51 36.78 +11 06 14.2 19.7   704 – Lincoln Laboratory ETS, New Mexico MPS 99604
2004 02 17.29107 10 51 35.98 +11 06 20.0 20.0   704 – Lincoln Laboratory ETS, New Mexico MPS 99604
2004 02 17.30298 10 51 35.31 +11 06 24.4 19.7   704 – Lincoln Laboratory ETS, New Mexico MPS 99604
2004 02 17.31490 10 51 34.59 +11 06 29.4 20.1   704 – Lincoln Laboratory ETS, New Mexico MPS 99604
2004 02 17.32686 10 51 33.91 +11 06 33.4 19.7   704 – Lincoln Laboratory ETS, New Mexico MPS 99604
2004 02 23.27922 10 45 50.39 +11 43 37.9 19.2   704 – Lincoln Laboratory ETS, New Mexico MPS 100537
2004 02 23.29309 10 45 49.60 +11 43 43.7 19.5   704 – Lincoln Laboratory ETS, New Mexico MPS 100537
2004 02 23.30462 10 45 48.87 +11 43 48.1 19.4   704 – Lincoln Laboratory ETS, New Mexico MPS 100537
2004 02 23.31851 10 45 48.03 +11 43 52.5 19.7   704 – Lincoln Laboratory ETS, New Mexico MPS 100537
2004 02 23.33275 10 45 47.17 +11 43 58.1 19.2   704 – Lincoln Laboratory ETS, New Mexico MPS 100537
2004 02 25.30344 10 43 50.76 +11 56 03.2 19.4   704 – Lincoln Laboratory ETS, New Mexico MPS 100537
2004 02 25.31565 10 43 50.04 +11 56 09.6 19.7   704 – Lincoln Laboratory ETS, New Mexico MPS 100537
2004 02 25.32780 10 43 49.13 +11 56 13.3 19.3   704 – Lincoln Laboratory ETS, New Mexico MPS 100537
